Showing default

LEMUR 2 THEFALCONER, 63264

Orbit data source: Space-Track

LEMUR 2 THEFALCONER, 63264 is a payload satellite owned by Spire (US) in SSO that was launched on Sat, 15 Mar 2025 UTC via an FALCON 9 launch vehicle from the Air Force Western Test Range (AFWTR). Payload-class satellites include a variety of spacecraft equipped with specific instruments for various scientific and technological missions. These include communications satellites like Starlink; space stations such as the ISS; scientific satellites like the Hubble; Earth observation satellites from companies like Planet Labs, Umbra, and HawkEye 360; GPS; miniature CubeSats for education and research; and military/defense satellites.

Loading next visibility...
Identifier
63264, 2025-052BG
Orbit
SSO
Country
Flag of USUS
Related business
Manufacturer
Spire/Glasgow
Mission
Operational Commercial Com/MetRO
Bus & Motor
CUBESAT 6U, Unknown motor
Mass
10 kg wet, 10 kg dry
Launch date (UTC)
2025-03-15 (7 months ago)
Launch vehicle
FALCON 9
Launch site
Air Force Western Test Range (AFWTR)
Object type
Payload
Rocket body
Debris
Shape & HBR
Box, 0.2 m
Radar Cross Section
0.080 m², Medium (>0.1 m² and < 1m²)

Expand to show TLE details & history
Last TLE update: 1 day ago

TLE from 1 day ago
0 LEMUR 2 THEFALCONER
1 63264U 25052BG  25286.28553951  .00009028  00000-0  84475-3 0  9996
2 63264  97.7073 177.7614 0003878  94.6333 265.5330 14.94308360 31773
Epoch: 2025-10-13T06:51Z
TLE epoch observation values (Epoch: 2025-10-13T06:51:10.613Z)
Latitude
-0.00007°
Longitude
52.87668°
Altitude
587.778 km
Speed
7.566 km/s
True Right ascension
11h 51m 02s
True Declination
0° 00' 00"
Sunlit
Object was in daylight at epoch
Visualization orbit readout
Latitude
Unknown
Longitude
Unknown
Altitude
Unknown
Speed
Unknown
Apparent Right ascension
Unknown
Apparent Declination
Unknown
Sunlit
N/A
Visualization observer readout
Local Sidereal Time
11:59:44
Azimuth
Unknown
Elevation
Unknown
Doppler factor
Unknown
Orbital elements
Apogee altitude
584.233 km
Perigee altitude
578.835 km
Semi-major axis
6,959.671 km
Eccentricity
0.00039
Inclination
97.7073°
RAAN
177.7614°
Arg. of periapsis
94.6333°
True anomaly
265.4887°
Mean anomaly
265.533°
Eccentric anomaly
265.51085°
Mean motion
3.73818 °/min
Orbital period
96.3 mins
BSTAR
0.00084475
Loading maneuver chart data...
Computing Atmospheric mass density...
Loading historical data...
Loading historical data...
Loading historical data...
Loading historical data...
Loading historical data...
Loading historical data...
Loading historical data...

Documentation

Showing up to 5 results
|